SL-16 DEB, 22392

Orbit data source: Space-Track

SL-16 DEB, 22392 is space debris in LEO originally from a launch on Fri, 25 Dec 1992 UTC launched from the Tyuratam Missile And Space Complex (TTMTR). Debris objects in space refer to the collection of defunct objects orbiting the Earth. Examples of debris include non-operational satellites, rocket bodies, and fragments generated from explosions, collisions, or faulty payload assembly.

Loading next visibility...
Identifier
22392, 1992-093CH
Orbit
LEO
Country
Flag of CISCIS
Related business
Manufacturer
Unknown
Mission
Spacecraft
Bus & Motor
Unknown
Mass
Unknown
Launch date (UTC)
1992-12-25 (33 years ago)
Launch vehicle
Unknown
Launch site
Tyuratam Missile And Space Complex (TTMTR)
Object type
Payload
Rocket body
Debris
Shape & HBR
Unknown shape, 0.2 m
Radar Cross Section
Small (<0.1 m²)

Expand to show TLE details & history
Last TLE update: 8 hours ago

TLE from 8 hours ago
0 SL-16 DEB
1 22392U 92093CH  26133.50982881  .00002306  00000-0  23927-3 0  9994
2 22392  70.8831 161.2916 0073208  37.7975 119.6701 14.89283532758629
Epoch: 2026-05-13T12:14Z
TLE epoch observation values (Epoch: 2026-05-13T12:14:09.209Z)
Latitude
20.56419°
Longitude
-80.94651°
Altitude
627.844 km
Speed
7.533 km/s
True Right ascension
22h 15m 26s
True Declination
20° 26' 57"
Sunlit
Object was in daylight at epoch
Visualization orbit readout
Latitude
Unknown
Longitude
Unknown
Altitude
Unknown
Speed
Unknown
Apparent Right ascension
Unknown
Apparent Declination
Unknown
Sunlit
N/A
Visualization observer readout
Local Sidereal Time
04:56:25
Azimuth
Unknown
Elevation
Unknown
Doppler factor
Unknown
Orbital elements
Apogee altitude
649.108 km
Perigee altitude
546.966 km
Semi-major axis
6,976.174 km
Eccentricity
0.00732
Inclination
70.8831°
RAAN
161.2916°
Arg. of periapsis
37.7975°
True anomaly
120.39571°
Mean anomaly
119.6701°
Eccentric anomaly
120.03323°
Mean motion
3.72492 °/min
Orbital period
96.65 mins
BSTAR
0.00023927
Loading maneuver chart data...
Computing Atmospheric mass density...
Loading historical data...
Loading historical data...
Loading historical data...
Loading historical data...
Loading historical data...
Loading historical data...
Loading historical data...

Documentation

Showing up to 5 results
|